Date String (YYYY-MM-DD hh:mm:ss) UTC,Instrument flags,absolute air pressure of the measurement (hPa),sample flow rate (lpm),inlet stack bypass flow (lpm),air temperature of the measurement (°C),ambient temperature measured by the external sensor (°C),aerosol sample conditioner tube jacket temperature (°C),OPC LED temperature (°C),internal box temperature (°C),relative humidity of the measurement (%),span deviation,mass concentration of particles derived from Lorenz-Mie calculation of OPC scattering (μg/m³),mass concentration of particles derived from Lorenz-Mie calculation of OPC scattering (μg/m³),mass concentration of particles derived from Lorenz-Mie calculation of OPC scattering (μg/m³)
DateTimeUTC,F1_M11,P_M11,Q1_M11,Q2_M11,T1_M11,T2_M11,T3_M11,T4_M11,T5_M11,U1_M11,ZSPAN_M11,X2_M11,X0_M11,X1_M11
2023-09-20 22:00:00,SystemResetWarning,0826.9,5.00,000.00,027.5,024.4,000.0,035.9,028.9,16.6,0000.0,0003.20,0009.85,0002.39
2023-09-20 22:01:00,SystemResetWarning,0826.9,4.99,000.00,027.5,024.8,000.0,035.9,029.0,16.7,0000.0,0003.21,0009.33,0002.41
2023-09-20 22:02:00,SystemResetWarning,0826.9,5.00,000.00,027.5,025.2,000.0,035.9,029.0,16.6,0000.0,0003.20,0009.22,0002.41
2023-09-20 22:03:00,SystemResetWarning,0826.9,5.01,000.00,027.5,025.6,000.0,035.9,029.1,16.7,0000.0,0003.18,0008.40,0002.41
2023-09-20 22:04:00,SystemResetWarning,0826.9,5.01,000.00,027.6,025.9,000.0,035.9,029.2,16.9,0000.0,0003.16,0008.31,0002.41
2023-09-20 22:05:00,SystemResetWarning,0826.9,5.00,000.00,027.6,026.2,000.0,035.9,029.3,16.7,0000.0,0003.16,0008.36,0002.43
2023-09-20 22:06:00,SystemResetWarning,0826.9,5.00,000.00,027.7,026.4,000.0,035.9,029.4,16.8,0000.0,0003.19,0008.73,0002.43
2023-09-20 22:07:00,SystemResetWarning,0826.9,5.00,000.00,027.7,026.6,000.0,036.0,029.5,16.9,0000.0,0003.22,0008.26,0002.43
2023-09-20 22:08:00,SystemResetWarning,0826.9,5.00,000.00,027.8,026.8,000.0,036.0,029.6,16.7,0000.0,0003.21,0007.53,0002.41
2023-09-20 22:09:00,SystemResetWarning,0826.9,4.99,000.00,027.8,026.6,000.0,036.0,029.5,16.7,0000.0,0003.17,0007.21,0002.42
2023-09-20 22:10:00,SystemResetWarning,0826.8,5.00,000.00,027.7,024.9,000.0,036.0,029.0,16.6,0000.0,0003.15,0006.96,0002.41
2023-09-20 22:11:00,SystemResetWarning,0826.8,5.01,000.00,027.6,023.9,000.0,035.9,028.8,16.5,0000.0,0003.13,0006.86,0002.41
2023-09-20 22:12:00,SystemResetWarning,0826.8,5.01,000.00,027.5,024.0,000.0,035.9,028.8,16.6,0000.0,0003.13,0007.25,0002.39
2023-09-20 22:13:00,SystemResetWarning,0826.8,5.01,000.00,027.5,024.4,000.0,035.9,028.9,16.8,0000.0,0003.13,0007.56,0002.38
2023-09-20 22:14:00,SystemResetWarning,0826.9,5.00,000.00,027.5,024.8,000.0,035.9,028.9,16.9,0000.0,0003.13,0008.24,0002.38
2023-09-20 22:15:00,SystemResetWarning,0826.9,4.99,000.00,027.5,025.2,000.0,035.9,029.0,16.8,0000.0,0003.14,0008.27,0002.35
2023-09-20 22:16:00,SystemResetWarning,0826.9,5.00,000.00,027.5,025.6,000.0,035.9,029.1,17.2,0000.0,0003.14,0008.30,0002.34
2023-09-20 22:17:00,SystemResetWarning,0827.0,5.00,000.00,027.6,025.9,000.0,035.9,029.2,17.0,0000.0,0003.13,0008.63,0002.33
2023-09-20 22:18:00,SystemResetWarning,0827.0,5.01,000.00,027.6,026.2,000.0,035.9,029.3,17.5,0000.0,0003.12,0008.84,0002.34
2023-09-20 22:19:00,SystemResetWarning,0826.9,5.00,000.00,027.7,026.4,000.0,035.9,029.4,16.6,0000.0,0003.12,0009.30,0002.36
2023-09-20 22:20:00,SystemResetWarning,0826.9,5.00,000.00,027.7,026.6,000.0,036.0,029.5,15.7,0000.0,0003.11,0009.32,0002.35
2023-09-20 22:21:00,SystemResetWarning,0827.0,5.00,000.00,027.8,026.8,000.0,036.0,029.6,15.8,0000.0,0003.12,0009.45,0002.34
2023-09-20 22:22:00,SystemResetWarning,0827.0,5.00,000.00,027.8,026.9,000.0,036.0,029.6,16.2,0000.0,0003.14,0010.18,0002.34
2023-09-20 22:23:00,SystemResetWarning,0827.0,4.99,000.00,027.9,026.5,000.0,036.0,029.5,16.5,0000.0,0003.14,0009.94,0002.33
2023-09-20 22:24:00,SystemResetWarning,0826.9,5.00,000.00,027.7,024.7,000.0,036.0,029.0,16.8,0000.0,0003.10,0009.60,0002.32
2023-09-20 22:25:00,SystemResetWarning,0826.9,5.00,000.00,027.6,023.8,000.0,035.9,028.8,17.3,0000.0,0003.13,0008.81,0002.33
2023-09-20 22:26:00,SystemResetWarning,0826.9,5.01,000.00,027.6,024.0,000.0,035.9,028.8,17.5,0000.0,0003.13,0008.77,0002.34
2023-09-20 22:27:00,SystemResetWarning,0826.9,5.00,000.00,027.5,024.4,000.0,035.9,028.9,17.4,0000.0,0003.13,0009.16,0002.35
2023-09-20 22:28:00,SystemResetWarning,0826.9,5.00,000.00,027.5,024.8,000.0,035.9,029.0,17.0,0000.0,0003.11,0008.83,0002.35
2023-09-20 22:29:00,SystemResetWarning,0826.9,5.00,000.00,027.5,025.2,000.0,035.9,029.1,17.0,0000.0,0003.11,0009.64,0002.35
2023-09-20 22:30:00,SystemResetWarning,0826.9,4.99,000.00,027.5,025.6,000.0,035.9,029.2,17.1,0000.0,0003.10,0009.27,0002.32
2023-09-20 22:31:00,SystemResetWarning,0826.9,5.00,000.00,027.6,025.9,000.0,035.9,029.2,17.1,0000.0,0003.10,0009.17,0002.33
2023-09-20 22:32:00,SystemResetWarning,0827.0,5.00,000.00,027.6,026.2,000.0,035.9,029.3,17.3,0000.0,0003.12,0009.16,0002.34
2023-09-20 22:33:00,SystemResetWarning,0826.9,5.00,000.00,027.7,026.4,000.0,036.0,029.4,16.8,0000.0,0003.10,0008.39,0002.35
2023-09-20 22:34:00,SystemResetWarning,0827.0,4.99,000.00,027.7,026.6,000.0,036.0,029.5,16.9,0000.0,0003.10,0008.43,0002.37
2023-09-20 22:35:00,SystemResetWarning,0827.0,5.00,000.00,027.8,026.8,000.0,036.0,029.5,16.5,0000.0,0003.13,0008.52,0002.38
2023-09-20 22:36:00,SystemResetWarning,0826.9,5.00,000.00,027.8,026.7,000.0,036.0,029.6,16.5,0000.0,0003.12,0008.50,0002.39
2023-09-20 22:37:00,SystemResetWarning,0826.9,4.99,000.00,027.8,025.3,000.0,036.0,029.2,16.5,0000.0,0003.13,0008.56,0002.39
2023-09-20 22:38:00,SystemResetWarning,0826.9,5.02,000.00,027.7,024.7,000.0,036.0,029.2,16.5,0000.0,0003.14,0008.68,0002.39
2023-09-20 22:39:00,SystemResetWarning,0826.9,5.00,000.00,027.7,024.9,000.0,036.0,029.1,16.5,0000.0,0003.17,0008.83,0002.41
2023-09-20 22:40:00,SystemResetWarning,0827.0,4.99,000.00,027.6,025.1,000.0,036.0,029.1,16.8,0000.0,0003.18,0008.11,0002.41
2023-09-20 22:41:00,SystemResetWarning,0827.0,5.00,000.00,027.6,025.5,000.0,036.0,029.2,17.0,0000.0,0003.21,0007.60,0002.43
2023-09-20 22:42:00,SystemResetWarning,0827.0,5.00,000.00,027.7,025.8,000.0,036.0,029.3,17.1,0000.0,0003.24,0007.67,0002.43
2023-09-20 22:43:00,SystemResetWarning,0827.0,5.00,000.00,027.7,026.1,000.0,036.0,029.4,16.9,0000.0,0003.23,0007.73,0002.43
2023-09-20 22:44:00,SystemResetWarning,0827.1,4.99,000.00,027.7,026.3,000.0,036.0,029.4,17.4,0000.0,0003.24,0007.79,0002.42
2023-09-20 22:45:00,SystemResetWarning,0827.0,4.99,000.00,027.8,026.6,000.0,036.1,029.5,17.2,0000.0,0003.22,0007.73,0002.42
2023-09-20 22:46:00,SystemResetWarning,0827.1,5.00,000.00,027.8,026.8,000.0,036.1,029.6,17.1,0000.0,0003.22,0007.76,0002.41
2023-09-20 22:47:00,SystemResetWarning,0827.1,4.98,000.00,027.9,026.3,000.0,036.1,029.5,17.0,0000.0,0003.22,0008.98,0002.41
2023-09-20 22:48:00,SystemResetWarning,0827.1,5.01,000.00,027.8,025.0,000.0,036.1,029.2,17.0,0000.0,0003.23,0009.30,0002.41
2023-09-20 22:49:00,SystemResetWarning,0827.1,5.00,000.00,027.7,024.8,000.0,036.0,029.2,17.4,0000.0,0003.23,0009.20,0002.41
2023-09-20 22:50:00,SystemResetWarning,0827.1,5.01,000.00,027.7,025.0,000.0,036.0,029.2,18.1,0000.0,0003.21,0008.65,0002.39
2023-09-20 22:51:00,SystemResetWarning,0827.1,5.00,000.00,027.7,025.3,000.0,036.0,029.2,18.1,0000.0,0003.20,0008.76,0002.38
2023-09-20 22:52:00,SystemResetWarning,0827.2,5.00,000.00,027.7,025.6,000.0,036.1,029.3,18.7,0000.0,0003.20,0008.37,0002.37
2023-09-20 22:53:00,SystemResetWarning,0827.2,5.00,000.00,027.7,025.9,000.0,036.1,029.4,18.4,0000.0,0003.17,0008.30,0002.36
2023-09-20 22:54:00,SystemResetWarning,0827.2,4.99,000.00,027.8,026.2,000.0,036.1,029.4,18.0,0000.0,0003.18,0008.32,0002.35
2023-09-20 22:55:00,SystemResetWarning,0827.2,4.99,000.00,027.8,026.4,000.0,036.1,029.5,17.5,0000.0,0003.16,0008.57,0002.36
2023-09-20 22:56:00,SystemResetWarning,0827.1,5.00,000.00,027.9,026.6,000.0,036.1,029.6,17.2,0000.0,0003.16,0008.84,0002.36
2023-09-20 22:57:00,SystemResetWarning,0827.2,4.99,000.00,027.9,026.4,000.0,036.1,029.5,16.9,0000.0,0003.18,0008.95,0002.37
2023-09-20 22:58:00,SystemResetWarning,0827.1,5.00,000.00,027.8,025.1,000.0,036.1,029.2,17.0,0000.0,0003.17,0008.53,0002.37
2023-09-20 22:59:00,SystemResetWarning,0827.2,5.00,000.00,027.7,024.8,000.0,036.1,029.2,17.4,0000.0,0003.18,0007.82,0002.38
